Time,TemperatureF,DewpointF,PressureIn,WindDirection,WindDirectionDegrees,WindSpeedMPH,WindSpeedGustMPH,Humidity,HourlyPrecipIn,Conditions,Clouds,dailyrainin,SoftwareType,DateUTC
2013-02-07 00:01:00,70.0,69.0,29.40,West,270,0.0,0.0,98,0.00,,,0.00,,2013-02-06 22:01:00,
2013-02-07 00:11:00,70.0,69.0,29.40,West,270,0.0,0.0,98,0.00,,,0.00,,2013-02-06 22:11:00,
2013-02-07 00:21:00,72.0,71.0,29.39,West,263,2.0,2.0,98,0.00,,,0.00,,2013-02-06 22:21:00,
2013-02-07 00:31:00,72.0,71.0,29.40,WNW,293,2.0,5.0,98,0.00,,,0.00,,2013-02-06 22:31:00,
2013-02-07 00:41:00,72.0,71.0,29.40,WNW,293,2.0,5.0,98,0.00,,,0.00,,2013-02-06 22:41:00,
2013-02-07 00:51:00,72.0,71.0,29.40,West,270,1.0,3.0,98,0.00,,,0.00,,2013-02-06 22:51:00,
2013-02-07 01:01:00,72.0,71.0,29.40,West,270,1.0,3.0,98,0.00,,,0.00,,2013-02-06 23:01:00,
2013-02-07 01:11:00,72.0,71.0,29.40,West,270,1.0,3.0,98,0.00,,,0.00,,2013-02-06 23:11:00,
2013-02-07 01:21:00,72.0,71.0,29.39,West,270,2.0,3.0,98,0.00,,,0.00,,2013-02-06 23:21:00,
2013-02-07 01:31:00,72.0,71.0,29.39,West,264,2.0,3.0,98,0.00,,,0.00,,2013-02-06 23:31:00,
2013-02-07 01:41:00,72.0,71.0,29.39,West,264,2.0,3.0,98,0.00,,,0.00,,2013-02-06 23:41:00,
2013-02-07 01:51:00,72.0,71.0,29.39,West,264,2.0,3.0,98,0.00,,,0.00,,2013-02-06 23:51:00,
2013-02-07 02:01:00,71.0,70.0,29.38,West,270,2.0,2.0,98,0.00,,,0.00,,2013-02-07 00:01:00,
2013-02-07 02:11:00,71.0,70.0,29.38,West,270,2.0,2.0,98,0.00,,,0.00,,2013-02-07 00:11:00,
2013-02-07 02:21:00,70.0,69.0,29.37,WSW,254,2.0,3.0,98,0.00,,,0.00,,2013-02-07 00:21:00,
2013-02-07 02:31:00,70.0,69.0,29.37,WSW,257,2.0,3.0,98,0.00,,,0.00,,2013-02-07 00:31:00,
2013-02-07 02:41:00,70.0,69.0,29.37,WSW,257,2.0,3.0,98,0.00,,,0.00,,2013-02-07 00:41:00,
2013-02-07 02:51:00,70.0,69.0,29.37,WSW,254,1.0,3.0,98,0.00,,,0.00,,2013-02-07 00:51:00,
2013-02-07 03:01:00,70.0,69.0,29.37,WSW,254,1.0,3.0,98,0.00,,,0.00,,2013-02-07 01:01:00,
2013-02-07 03:11:00,70.0,69.0,29.37,WSW,254,1.0,3.0,98,0.00,,,0.00,,2013-02-07 01:11:00,
2013-02-07 03:21:00,70.0,69.0,29.35,WNW,282,3.0,5.0,98,0.00,,,0.00,,2013-02-07 01:21:00,
2013-02-07 03:31:00,70.0,69.0,29.35,WNW,282,3.0,5.0,98,0.00,,,0.00,,2013-02-07 01:31:00,
2013-02-07 03:41:00,70.0,69.0,29.35,WNW,282,3.0,5.0,98,0.00,,,0.00,,2013-02-07 01:41:00,
2013-02-07 03:52:00,71.0,70.0,29.34,WNW,284,3.0,5.0,98,0.00,,,0.00,,2013-02-07 01:52:00,
2013-02-07 04:01:00,71.0,70.0,29.34,WSW,245,2.0,6.0,98,0.00,,,0.00,,2013-02-07 02:01:00,
2013-02-07 04:11:00,71.0,70.0,29.34,WSW,245,2.0,6.0,98,0.00,,,0.00,,2013-02-07 02:11:00,
2013-02-07 04:21:00,71.0,70.0,29.34,WSW,245,2.0,6.0,98,0.00,,,0.00,,2013-02-07 02:21:00,
2013-02-07 04:31:00,69.0,68.0,29.33,SW,225,1.0,2.0,98,0.00,,,0.00,,2013-02-07 02:31:00,
2013-02-07 04:41:00,69.0,68.0,29.33,SW,225,1.0,2.0,98,0.00,,,0.00,,2013-02-07 02:41:00,
2013-02-07 04:52:00,69.0,68.0,29.33,SW,225,1.0,2.0,98,0.00,,,0.00,,2013-02-07 02:52:00,
2013-02-07 05:01:00,69.0,68.0,29.32,SW,225,2.0,3.0,98,0.00,,,0.00,,2013-02-07 03:01:00,
2013-02-07 05:11:00,69.0,68.0,29.32,SW,225,2.0,3.0,98,0.00,,,0.00,,2013-02-07 03:11:00,
2013-02-07 05:21:00,69.0,68.0,29.32,SW,225,2.0,3.0,98,0.00,,,0.00,,2013-02-07 03:21:00,
2013-02-07 05:31:00,69.0,68.0,29.32,SW,225,2.0,3.0,98,0.00,,,0.00,,2013-02-07 03:31:00,
2013-02-07 05:41:00,69.0,68.0,29.32,SW,225,2.0,3.0,98,0.00,,,0.00,,2013-02-07 03:41:00,
2013-02-07 05:52:00,69.0,68.0,29.32,SW,226,2.0,3.0,98,0.00,,,0.00,,2013-02-07 03:52:00,
2013-02-07 06:01:00,69.0,68.0,29.32,SW,226,2.0,3.0,98,0.00,,,0.00,,2013-02-07 04:01:00,
2013-02-07 06:11:00,69.0,68.0,29.32,SW,226,2.0,3.0,98,0.00,,,0.00,,2013-02-07 04:11:00,
2013-02-07 06:21:00,69.0,68.0,29.32,NW,308,2.0,5.0,98,0.00,,,0.00,,2013-02-07 04:21:00,
2013-02-07 06:31:00,70.0,69.0,29.32,WSW,239,3.0,6.0,98,0.00,,,0.00,,2013-02-07 04:31:00,
2013-02-07 06:41:00,70.0,69.0,29.32,WSW,239,3.0,6.0,98,0.00,,,0.00,,2013-02-07 04:41:00,
2013-02-07 06:52:00,70.0,69.0,29.32,WSW,239,3.0,6.0,98,0.00,,,0.00,,2013-02-07 04:52:00,
2013-02-07 07:01:00,73.0,72.0,29.32,SW,227,2.0,3.0,98,0.00,,,0.00,,2013-02-07 05:01:00,
2013-02-07 07:11:00,73.0,72.0,29.32,SW,227,2.0,3.0,98,0.00,,,0.00,,2013-02-07 05:11:00,
2013-02-07 07:21:00,75.0,74.0,29.32,West,269,3.0,5.0,98,0.00,,,0.00,,2013-02-07 05:21:00,
2013-02-07 07:32:00,76.0,75.0,29.32,West,264,1.0,3.0,98,0.00,,,0.00,,2013-02-07 05:32:00,
2013-02-07 07:42:00,76.0,75.0,29.32,West,264,1.0,3.0,98,0.00,,,0.00,,2013-02-07 05:42:00,
2013-02-07 07:52:00,77.0,76.0,29.32,West,263,2.0,5.0,98,0.00,,,0.00,,2013-02-07 05:52:00,
2013-02-07 08:01:00,77.0,76.0,29.32,West,263,2.0,5.0,98,0.00,,,0.00,,2013-02-07 06:01:00,
2013-02-07 08:11:00,77.0,76.0,29.32,West,263,2.0,5.0,98,0.00,,,0.00,,2013-02-07 06:11:00,
2013-02-07 08:22:00,79.0,78.0,29.33,WSW,248,3.0,5.0,98,0.00,,,0.00,,2013-02-07 06:22:00,
2013-02-07 08:31:00,82.0,81.0,29.33,SW,234,2.0,5.0,98,0.00,,,0.00,,2013-02-07 06:31:00,
2013-02-07 08:43:00,82.0,81.0,29.33,SW,234,2.0,5.0,98,0.00,,,0.00,,2013-02-07 06:43:00,
2013-02-07 08:52:00,84.0,83.0,29.33,WSW,246,2.0,5.0,98,0.00,,,0.00,,2013-02-07 06:52:00,
2013-02-07 09:01:00,82.0,81.0,29.32,SSW,213,6.0,7.0,98,0.00,,,0.00,,2013-02-07 07:01:00,
2013-02-07 09:11:00,82.0,81.0,29.32,SSW,213,6.0,7.0,98,0.00,,,0.00,,2013-02-07 07:11:00,
2013-02-07 09:21:00,82.0,81.0,29.32,SSW,213,6.0,7.0,98,0.00,,,0.00,,2013-02-07 07:21:00,
2013-02-07 09:31:00,82.0,81.0,29.32,SSW,204,6.0,7.0,98,0.00,,,0.00,,2013-02-07 07:31:00,
2013-02-07 09:41:00,82.0,81.0,29.32,SSW,204,6.0,7.0,98,0.00,,,0.00,,2013-02-07 07:41:00,
2013-02-07 09:52:00,82.0,81.0,29.32,SSE,168,7.0,9.0,98,0.00,,,0.00,,2013-02-07 07:52:00,
2013-02-07 10:01:00,82.0,81.0,29.31,SW,216,7.0,10.0,98,0.00,,,0.00,,2013-02-07 08:01:00,
2013-02-07 10:11:00,82.0,81.0,29.31,SW,216,7.0,10.0,98,0.00,,,0.00,,2013-02-07 08:11:00,
2013-02-07 10:21:00,82.0,81.0,29.31,SW,216,7.0,10.0,98,0.00,,,0.00,,2013-02-07 08:21:00,
2013-02-07 10:31:00,80.0,79.0,29.31,SW,223,8.0,12.0,98,0.00,,,0.00,,2013-02-07 08:31:00,
2013-02-07 10:41:00,80.0,79.0,29.31,SW,223,8.0,12.0,98,0.00,,,0.00,,2013-02-07 08:41:00,
2013-02-07 10:52:00,81.0,80.0,29.31,South,179,7.0,15.0,98,0.00,,,0.00,,2013-02-07 08:52:00,
2013-02-07 11:01:00,82.0,81.0,29.30,South,176,9.0,15.0,98,0.00,,,0.00,,2013-02-07 09:01:00,
2013-02-07 11:11:00,82.0,81.0,29.30,South,176,9.0,15.0,98,0.00,,,0.00,,2013-02-07 09:11:00,
2013-02-07 11:21:00,82.0,81.0,29.30,South,176,9.0,15.0,98,0.00,,,0.00,,2013-02-07 09:21:00,
2013-02-07 11:31:00,82.0,81.0,29.30,SSE,167,8.0,12.0,98,0.00,,,0.00,,2013-02-07 09:31:00,
2013-02-07 11:41:00,82.0,81.0,29.30,SSE,167,8.0,12.0,98,0.00,,,0.00,,2013-02-07 09:41:00,
2013-02-07 11:52:00,82.0,81.0,29.30,SSE,167,8.0,12.0,98,0.00,,,0.00,,2013-02-07 09:52:00,
2013-02-07 12:01:00,82.0,81.0,29.30,SSE,167,8.0,12.0,98,0.00,,,0.00,,2013-02-07 10:01:00,
2013-02-07 12:11:00,82.0,81.0,29.30,SSE,167,8.0,12.0,98,0.00,,,0.00,,2013-02-07 10:11:00,
2013-02-07 12:32:00,82.0,81.0,29.29,SSE,158,10.0,13.0,98,0.00,,,0.00,,2013-02-07 10:32:00,
2013-02-07 12:42:00,82.0,81.0,29.29,SSE,158,10.0,13.0,98,0.00,,,0.00,,2013-02-07 10:42:00,
2013-02-07 12:43:00,82.0,81.0,29.28,SSE,168,12.0,14.0,98,0.00,,,0.00,,2013-02-07 10:43:00,
2013-02-07 12:52:00,82.0,81.0,29.28,SSE,168,9.0,14.0,98,0.00,,,0.00,,2013-02-07 10:52:00,
2013-02-07 13:01:00,82.0,81.0,29.28,SSE,168,12.0,14.0,98,0.00,,,0.00,,2013-02-07 11:01:00,
2013-02-07 13:11:00,82.0,81.0,29.28,SSE,168,12.0,14.0,98,0.00,,,0.00,,2013-02-07 11:11:00,
2013-02-07 13:22:00,82.0,81.0,29.28,SSE,168,12.0,14.0,98,0.00,,,0.00,,2013-02-07 11:22:00,
2013-02-07 13:32:00,82.0,81.0,29.28,SSE,168,12.0,14.0,98,0.00,,,0.00,,2013-02-07 11:32:00,
2013-02-07 13:52:00,81.0,80.0,29.27,SSE,168,10.0,16.0,98,0.00,,,0.00,,2013-02-07 11:52:00,
2013-02-07 14:02:00,82.0,81.0,29.27,SSE,162,10.0,14.0,98,0.00,,,0.00,,2013-02-07 12:02:00,
2013-02-07 14:11:00,82.0,81.0,29.27,SSE,162,10.0,14.0,98,0.00,,,0.00,,2013-02-07 12:11:00,
2013-02-07 14:21:00,82.0,81.0,29.27,SSE,162,10.0,14.0,98,0.00,,,0.00,,2013-02-07 12:21:00,
2013-02-07 14:32:00,81.0,80.0,29.27,SSW,193,10.0,13.0,98,0.00,,,0.00,,2013-02-07 12:32:00,
2013-02-07 14:41:00,81.0,80.0,29.27,SSW,193,10.0,13.0,98,0.00,,,0.00,,2013-02-07 12:41:00,
2013-02-07 14:53:00,84.0,83.0,29.26,SE,143,7.0,12.0,98,0.00,,,0.00,,2013-02-07 12:53:00,
2013-02-07 15:02:00,84.0,83.0,29.26,SE,143,7.0,12.0,98,0.00,,,0.00,,2013-02-07 13:02:00,
2013-02-07 15:11:00,84.0,83.0,29.26,SE,143,7.0,12.0,98,0.00,,,0.00,,2013-02-07 13:11:00,
2013-02-07 15:21:00,85.0,84.0,29.26,SE,128,6.0,10.0,98,0.00,,,0.00,,2013-02-07 13:21:00,
2013-02-07 15:32:00,85.0,84.0,29.26,SE,128,6.0,10.0,98,0.00,,,0.00,,2013-02-07 13:32:00,
2013-02-07 15:42:00,85.0,84.0,29.26,SE,128,6.0,10.0,98,0.00,,,0.00,,2013-02-07 13:42:00,
2013-02-07 15:51:00,85.0,84.0,29.26,ESE,121,6.0,9.0,98,0.00,,,0.00,,2013-02-07 13:51:00,
2013-02-07 16:01:00,85.0,84.0,29.26,SE,139,5.0,9.0,98,0.00,,,0.00,,2013-02-07 14:01:00,
2013-02-07 16:11:00,85.0,84.0,29.26,SE,139,5.0,9.0,98,0.00,,,0.00,,2013-02-07 14:11:00,
2013-02-07 16:21:00,86.0,85.0,29.26,South,184,6.0,9.0,98,0.00,,,0.00,,2013-02-07 14:21:00,
2013-02-07 16:31:00,86.0,85.0,29.26,SE,124,6.0,8.0,98,0.00,,,0.00,,2013-02-07 14:31:00,
2013-02-07 16:41:00,86.0,85.0,29.26,SE,124,6.0,8.0,98,0.00,,,0.00,,2013-02-07 14:41:00,
2013-02-07 16:52:00,85.0,84.0,29.26,ESE,112,6.0,9.0,98,0.00,,,0.00,,2013-02-07 14:52:00,
2013-02-07 17:01:00,82.0,81.0,29.26,South,189,7.0,9.0,98,0.00,,,0.00,,2013-02-07 15:01:00,
2013-02-07 17:11:00,82.0,81.0,29.26,South,189,7.0,9.0,98,0.00,,,0.00,,2013-02-07 15:11:00,
2013-02-07 17:21:00,83.0,82.0,29.25,South,181,7.0,8.0,98,0.00,,,0.00,,2013-02-07 15:21:00,
2013-02-07 17:31:00,83.0,82.0,29.25,SE,130,6.0,8.0,98,0.00,,,0.00,,2013-02-07 15:31:00,
2013-02-07 17:41:00,83.0,82.0,29.25,SE,130,6.0,8.0,98,0.00,,,0.00,,2013-02-07 15:41:00,
2013-02-07 17:52:00,83.0,82.0,29.25,SE,145,6.0,9.0,98,0.00,,,0.00,,2013-02-07 15:52:00,
2013-02-07 18:01:00,83.0,82.0,29.25,SE,145,6.0,9.0,98,0.00,,,0.00,,2013-02-07 16:01:00,
2013-02-07 18:11:00,83.0,82.0,29.25,SE,145,6.0,9.0,98,0.00,,,0.00,,2013-02-07 16:11:00,
2013-02-07 18:21:00,82.0,81.0,29.25,SSE,158,5.0,8.0,98,0.00,,,0.00,,2013-02-07 16:21:00,
2013-02-07 18:31:00,80.0,79.0,29.25,South,185,6.0,8.0,98,0.00,,,0.00,,2013-02-07 16:31:00,
2013-02-07 18:41:00,80.0,79.0,29.25,South,185,6.0,8.0,98,0.00,,,0.00,,2013-02-07 16:41:00,
2013-02-07 18:52:00,80.0,79.0,29.26,SSE,157,6.0,9.0,98,0.00,,,0.00,,2013-02-07 16:52:00,
2013-02-07 19:01:00,80.0,79.0,29.26,SE,125,5.0,8.0,98,0.00,,,0.00,,2013-02-07 17:01:00,
2013-02-07 19:11:00,79.0,78.0,29.26,South,182,6.0,7.0,98,0.00,,,0.00,,2013-02-07 17:11:00,
2013-02-07 19:21:00,79.0,78.0,29.26,South,182,6.0,7.0,98,0.00,,,0.00,,2013-02-07 17:21:00,
2013-02-07 19:31:00,79.0,78.0,29.26,South,182,6.0,7.0,98,0.00,,,0.00,,2013-02-07 17:31:00,
2013-02-07 19:41:00,79.0,78.0,29.26,South,182,6.0,7.0,98,0.00,,,0.00,,2013-02-07 17:41:00,
2013-02-07 19:52:00,77.0,76.0,29.27,SW,234,3.0,6.0,98,0.00,,,0.00,,2013-02-07 17:52:00,
2013-02-07 20:01:00,76.0,75.0,29.27,South,180,3.0,6.0,98,0.00,,,0.00,,2013-02-07 18:01:00,
2013-02-07 20:11:00,76.0,75.0,29.27,South,180,3.0,6.0,98,0.00,,,0.00,,2013-02-07 18:11:00,
2013-02-07 20:22:00,75.0,74.0,29.28,South,181,4.0,5.0,98,0.00,,,0.00,,2013-02-07 18:22:00,
2013-02-07 20:31:00,74.0,73.0,29.28,South,180,4.0,6.0,98,0.00,,,0.00,,2013-02-07 18:31:00,
2013-02-07 20:41:00,74.0,73.0,29.28,South,180,4.0,6.0,98,0.00,,,0.00,,2013-02-07 18:41:00,
2013-02-07 20:51:00,74.0,73.0,29.28,South,191,3.0,6.0,98,0.00,,,0.00,,2013-02-07 18:51:00,
2013-02-07 21:01:00,74.0,73.0,29.29,SE,137,3.0,5.0,98,0.00,,,0.00,,2013-02-07 19:01:00,
2013-02-07 21:11:00,74.0,73.0,29.29,SE,137,3.0,5.0,98,0.00,,,0.00,,2013-02-07 19:11:00,
2013-02-07 21:21:00,74.0,73.0,29.29,South,186,3.0,5.0,98,0.00,,,0.00,,2013-02-07 19:21:00,
2013-02-07 21:31:00,73.0,72.0,29.30,SSE,148,2.0,3.0,98,0.00,,,0.00,,2013-02-07 19:31:00,
2013-02-07 21:41:00,73.0,72.0,29.30,SSE,148,2.0,3.0,98,0.00,,,0.00,,2013-02-07 19:41:00,
2013-02-07 21:51:00,73.0,72.0,29.30,SSE,158,2.0,2.0,98,0.00,,,0.00,,2013-02-07 19:51:00,
2013-02-07 22:01:00,73.0,72.0,29.30,SW,222,0.0,1.0,98,0.00,,,0.00,,2013-02-07 20:01:00,
2013-02-07 22:11:00,73.0,72.0,29.30,SW,222,0.0,1.0,98,0.00,,,0.00,,2013-02-07 20:11:00,
2013-02-07 22:21:00,71.0,70.0,29.31,SW,225,0.0,0.0,98,0.00,,,0.00,,2013-02-07 20:21:00,
2013-02-07 22:31:00,71.0,70.0,29.31,SW,225,0.0,0.0,98,0.00,,,0.00,,2013-02-07 20:31:00,
2013-02-07 22:41:00,71.0,70.0,29.31,SW,225,0.0,0.0,98,0.00,,,0.00,,2013-02-07 20:41:00,
2013-02-07 22:52:00,71.0,70.0,29.31,SW,220,0.0,0.0,98,0.00,,,0.00,,2013-02-07 20:52:00,
2013-02-07 23:01:00,71.0,70.0,29.31,SW,225,0.0,0.0,98,0.00,,,0.00,,2013-02-07 21:01:00,
2013-02-07 23:11:00,71.0,70.0,29.31,SW,225,0.0,0.0,98,0.00,,,0.00,,2013-02-07 21:11:00,
2013-02-07 23:21:00,71.0,70.0,29.31,SSW,202,0.0,0.0,98,0.00,,,0.00,,2013-02-07 21:21:00,
2013-02-07 23:31:00,71.0,70.0,29.31,SSW,202,0.0,0.0,98,0.00,,,0.00,,2013-02-07 21:31:00,
2013-02-07 23:41:00,71.0,70.0,29.31,SSW,202,0.0,0.0,98,0.00,,,0.00,,2013-02-07 21:41:00,
2013-02-07 23:51:00,71.0,70.0,29.31,SSW,202,0.0,0.0,98,0.00,,,0.00,,2013-02-07 21:51:00,